This is the latest recevied weather packets stored in our database for station/object 4S6DRJ-13. If no packets are shown the sender has not sent any weather packets the latest 10 day(s).
| Time | Temp. | Humidity | Pressure | Rain* | Wind** | Luminosity | Snow |
|---|---|---|---|---|---|---|---|
| 1788393929 | 27.78° C | 86% | 1009.2 hPa | 0 mm | 0.45 m/s, 225° | 0 W/m² | - |
| 1788393868 | 27.78° C | 86% | 1009.3 hPa | 0 mm | 1.34 m/s, 217° | 0 W/m² | - |
| 1788393807 | 27.78° C | 86% | 1009.2 hPa | 0 mm | 0.45 m/s, 226° | 0 W/m² | - |
| 1788393746 | 27.78° C | 86% | 1009.2 hPa | 0 mm | 0 m/s | 0 W/m² | - |
| 1788393686 | 27.78° C | 86% | 1009 hPa | 0 mm | 0 m/s | 0 W/m² | - |
| 1788393624 | 27.78° C | 86% | 1009.1 hPa | 0 mm | 1.34 m/s, 217° | 0 W/m² | - |
| 1788393563 | 27.78° C | 86% | 1009.2 hPa | 0 mm | 0.45 m/s, 224° | 0 W/m² | - |
| 1788393502 | 27.78° C | 86% | 1009.1 hPa | 0 mm | 0.89 m/s, 299° | 0 W/m² | - |
| 1788393442 | 27.78° C | 86% | 1009.1 hPa | 0 mm | 1.34 m/s, 252° | 0 W/m² | - |
| 1788393380 | 27.78° C | 86% | 1009.2 hPa | 0 mm | 0.89 m/s, 240° | 0 W/m² | - |
| 1788393319 | 27.78° C | 86% | 1009.1 hPa | 0 mm | 0.45 m/s, 207° | 0 W/m² | - |
| 1788393258 | 27.78° C | 86% | 1009.1 hPa | 0 mm | 0 m/s | 0 W/m² | - |
| 1788393197 | 27.78° C | 86% | 1009.2 hPa | 0 mm | 0.45 m/s, 213° | 0 W/m² | - |
| 1788393136 | 27.78° C | 86% | 1009 hPa | 0 mm | 0.45 m/s, 218° | 0 W/m² | - |
| 1788393075 | 27.78° C | 86% | 1009.2 hPa | 0 mm | 0.89 m/s, 222° | 0 W/m² | - |
| 1788393014 | 27.78° C | 86% | 1009.1 hPa | 0 mm | 0.89 m/s, 174° | 0 W/m² | - |
| 1788392953 | 27.78° C | 86% | 1009.1 hPa | 0 mm | 0.45 m/s, 205° | 0 W/m² | - |
| 1788392916 | 27.78° C | 86% | 1009.1 hPa | 0 mm | 0.45 m/s, 211° | 0 W/m² | - |
| 1788392831 | 27.78° C | 86% | 1009.2 hPa | 0 mm | 0 m/s | 0 W/m² | - |
| 1788392770 | 27.78° C | 86% | 1008.9 hPa | 0 mm | 0.45 m/s, 232° | 0 W/m² | - |
| 1788392709 | 27.78° C | 86% | 1009 hPa | 0 mm | 0.89 m/s, 229° | 0 W/m² | - |
| 1788392648 | 27.78° C | 86% | 1009 hPa | 0 mm | 0.45 m/s, 239° | 0 W/m² | - |
| 1788392587 | 27.78° C | 86% | 1009.1 hPa | 0 mm | 0 m/s | 0 W/m² | - |
| 1788392466 | 27.78° C | 86% | 1009.1 hPa | 0 mm | 0 m/s | 0 W/m² | - |
| 1788392405 | 27.78° C | 86% | 1009.2 hPa | 0 mm | 0 m/s | 0 W/m² | - |
* Rain latest hour (hover to see other rain measurements)
** Current wind speed in m/s (hover to see current wind gust speed)